When you browse on this site, cookies collect data to enhance your experience and personalize the content and advertising you see.
Visit our Privacy Policy to learn more. By continuing to use the site, you agree to this use of cookies and data.
  • In Schweiz
  • Länderverzeichnis
  • Für 7 Tage
  • Wassertemperatur
  • Satellitenkarten
  • Wetterkarte
  • Widgets
  • user-avatar
    Anmelden

    Stündliche Wetter Canberra

    Heute, 10 Dezember, Montag

    Zeit Temperatur Niederschläge Wind Luftdruck Luftfeuchtigkeit
    00:00 +20°C° 0.7 mm 1 m/S 710 mmHg 93%
    01:00 +20°C° 0.7 mm 1 m/S 710 mmHg 93%
    02:00 +19°C° 1.3 mm 1 m/S 709 mmHg 93%
    03:00 +19°C° 1.3 mm 1 m/S 709 mmHg 92%
    04:00 +19°C° 0 mm 1 m/S 709 mmHg 93%
    05:00 +19°C° 1 mm 1 m/S 709 mmHg 92%
    06:00 +19°C° 1 mm 1 m/S 709 mmHg 92%
    07:00 +19°C° 1 mm 1 m/S 709 mmHg 91%
    08:00 +20°C° 0.1 mm 2 m/S 709 mmHg 81%
    09:00 +23°C° 0.1 mm 2 m/S 709 mmHg 72%
    10:00 +25°C° 0.1 mm 2 m/S 709 mmHg 62%
    11:00 +26°C° 0.1 mm 3 m/S 709 mmHg 55%
    12:00 +28°C° 0.1 mm 3 m/S 709 mmHg 49%
    13:00 +29°C° 0.1 mm 3 m/S 709 mmHg 43%
    14:00 +28°C° 0.7 mm 3 m/S 709 mmHg 51%
    15:00 +26°C° 0.7 mm 3 m/S 709 mmHg 59%
    16:00 +23°C° 0.7 mm 4 m/S 708 mmHg 67%
    17:00 +22°C° 0.9 mm 3 m/S 708 mmHg 75%
    18:00 +20°C° 0.9 mm 3 m/S 709 mmHg 84%
    19:00 +18°C° 0.9 mm 3 m/S 709 mmHg 93%
    20:00 +17°C° 0 mm 3 m/S 709 mmHg 93%
    21:00 +17°C° 0 mm 3 m/S 710 mmHg 93%
    22:00 +16°C° 0 mm 3 m/S 710 mmHg 94%
    23:00 +16°C° 0 mm 3 m/S 710 mmHg 94%

    Morgen, 11 Dezember, Dienstag

    Zeit Temperatur Niederschläge Wind Luftdruck Luftfeuchtigkeit
    00:00 +15°C° 0 mm 2 m/S 710 mmHg 93%
    01:00 +15°C° 0 mm 2 m/S 710 mmHg 93%
    02:00 +15°C° 0 mm 2 m/S 710 mmHg 93%
    03:00 +14°C° 0 mm 2 m/S 709 mmHg 94%
    04:00 +14°C° 0 mm 2 m/S 709 mmHg 94%
    05:00 +15°C° 0 mm 2 m/S 710 mmHg 89%
    06:00 +16°C° 0 mm 2 m/S 710 mmHg 84%
    07:00 +17°C° 0 mm 2 m/S 710 mmHg 79%
    08:00 +19°C° 0 mm 3 m/S 710 mmHg 70%
    09:00 +21°C° 0 mm 3 m/S 711 mmHg 62%
    10:00 +24°C° 0 mm 3 m/S 711 mmHg 53%
    11:00 +25°C° 0.2 mm 3 m/S 711 mmHg 53%
    12:00 +25°C° 0.2 mm 3 m/S 710 mmHg 54%
    13:00 +26°C° 0.2 mm 3 m/S 710 mmHg 54%
    14:00 +26°C° 0.4 mm 3 m/S 710 mmHg 56%
    15:00 +25°C° 0.4 mm 3 m/S 709 mmHg 58%
    16:00 +25°C° 0.4 mm 3 m/S 709 mmHg 60%
    17:00 +22°C° 0.1 mm 3 m/S 709 mmHg 66%
    18:00 +21°C° 0.1 mm 3 m/S 709 mmHg 72%
    19:00 +19°C° 0.1 mm 3 m/S 709 mmHg 78%
    20:00 +18°C° 0 mm 3 m/S 709 mmHg 81%
    21:00 +17°C° 0 mm 3 m/S 709 mmHg 85%
    22:00 +17°C° 0 mm 3 m/S 710 mmHg 88%
    23:00 +16°C° 0 mm 3 m/S 709 mmHg 90%

    übermorgen, 12 Dezember, Mittwoch

    Zeit Temperatur Niederschläge Wind Luftdruck Luftfeuchtigkeit
    00:00 +16°C° 0 mm 2 m/S 709 mmHg 91%
    01:00 +15°C° 0 mm 2 m/S 708 mmHg 93%
    02:00 +15°C° 0 mm 2 m/S 708 mmHg 93%
    03:00 +16°C° 0 mm 2 m/S 708 mmHg 92%
    04:00 +16°C° 0 mm 2 m/S 708 mmHg 91%
    05:00 +16°C° 0 mm 2 m/S 708 mmHg 89%
    06:00 +17°C° 0 mm 2 m/S 708 mmHg 86%
    07:00 +18°C° 0 mm 2 m/S 708 mmHg 84%
    08:00 +19°C° 0 mm 2 m/S 708 mmHg 79%
    09:00 +20°C° 0 mm 2 m/S 708 mmHg 74%
    10:00 +21°C° 0 mm 2 m/S 708 mmHg 69%
    11:00 +23°C° 0.1 mm 2 m/S 707 mmHg 66%
    12:00 +24°C° 0.1 mm 2 m/S 707 mmHg 63%
    13:00 +25°C° 0.1 mm 2 m/S 706 mmHg 60%
    14:00 +26°C° 0.3 mm 2 m/S 706 mmHg 60%
    15:00 +26°C° 0.3 mm 2 m/S 705 mmHg 60%
    16:00 +26°C° 0.3 mm 2 m/S 705 mmHg 60%
    17:00 +25°C° 0.1 mm 2 m/S 705 mmHg 67%
    18:00 +23°C° 0.1 mm 2 m/S 704 mmHg 74%
    19:00 +21°C° 0.1 mm 2 m/S 704 mmHg 81%
    20:00 +20°C° 0 mm 2 m/S 704 mmHg 84%
    21:00 +20°C° 0 mm 3 m/S 704 mmHg 87%
    22:00 +19°C° 0 mm 3 m/S 704 mmHg 90%
    23:00 +19°C° 0.1 mm 2 m/S 704 mmHg 92%

    13 Dezember, Donnerstag

    Zeit Temperatur Niederschläge Wind Luftdruck Luftfeuchtigkeit
    00:00 +19°C° 0.1 mm 1 m/S 703 mmHg 93%
    01:00 +19°C° 0.1 mm 1 m/S 703 mmHg 94%
    02:00 +18°C° 0 mm 1 m/S 702 mmHg 95%
    03:00 +18°C° 0 mm 1 m/S 702 mmHg 96%
    04:00 +18°C° 0 mm 1 m/S 701 mmHg 97%
    05:00 +19°C° 0 mm 1 m/S 701 mmHg 93%
    06:00 +20°C° 0 mm 1 m/S 701 mmHg 88%
    07:00 +21°C° 0 mm 1 m/S 701 mmHg 83%
    08:00 +23°C° 0.3 mm 1 m/S 701 mmHg 76%
    09:00 +24°C° 0.3 mm 2 m/S 701 mmHg 69%
    10:00 +26°C° 0.3 mm 2 m/S 700 mmHg 61%
    11:00 +26°C° 1.2 mm 2 m/S 700 mmHg 65%
    12:00 +25°C° 1.2 mm 3 m/S 699 mmHg 69%
    13:00 +25°C° 1.2 mm 3 m/S 699 mmHg 72%
    14:00 +25°C° 0.6 mm 3 m/S 698 mmHg 68%
    15:00 +26°C° 0.6 mm 3 m/S 697 mmHg 64%
    16:00 +27°C° 0.6 mm 3 m/S 696 mmHg 60%
    17:00 +25°C° 2.4 mm 3 m/S 697 mmHg 69%
    18:00 +23°C° 2.4 mm 2 m/S 697 mmHg 78%
    19:00 +20°C° 2.4 mm 2 m/S 697 mmHg 87%
    20:00 +20°C° 1 mm 1 m/S 697 mmHg 89%
    21:00 +20°C° 1 mm 1 m/S 697 mmHg 91%
    22:00 +19°C° 1 mm 1 m/S 697 mmHg 93%
    23:00 +19°C° 0.3 mm 1 m/S 697 mmHg 94%

    14 Dezember, Freitag

    Zeit Temperatur Niederschläge Wind Luftdruck Luftfeuchtigkeit
    00:00 +18°C° 0.3 mm 1 m/S 697 mmHg 96%
    01:00 +18°C° 0.3 mm 1 m/S 696 mmHg 97%
    02:00 +17°C° 1 mm 2 m/S 696 mmHg 96%
    03:00 +17°C° 1 mm 2 m/S 696 mmHg 96%
    04:00 +16°C° 1 mm 3 m/S 696 mmHg 95%
    05:00 +16°C° 0.7 mm 3 m/S 696 mmHg 94%
    06:00 +14°C° 0.7 mm 3 m/S 697 mmHg 92%
    07:00 +14°C° 0.7 mm 3 m/S 697 mmHg 91%
    08:00 +14°C° 0.3 mm 3 m/S 697 mmHg 84%
    09:00 +16°C° 0.3 mm 3 m/S 698 mmHg 77%
    10:00 +17°C° 0.3 mm 3 m/S 698 mmHg 70%
    11:00 +18°C° 0 mm 4 m/S 698 mmHg 58%
    12:00 +20°C° 0 mm 4 m/S 698 mmHg 47%
    13:00 +22°C° 0 mm 4 m/S 698 mmHg 35%
    14:00 +22°C° 0 mm 4 m/S 698 mmHg 34%
    15:00 +22°C° 0 mm 3 m/S 698 mmHg 33%
    16:00 +22°C° 0 mm 3 m/S 698 mmHg 32%
    17:00 +20°C° 0 mm 3 m/S 699 mmHg 40%
    18:00 +19°C° 0 mm 2 m/S 699 mmHg 48%
    19:00 +17°C° 0 mm 2 m/S 699 mmHg 55%
    20:00 +16°C° 0 mm 2 m/S 699 mmHg 60%
    21:00 +14°C° 0 mm 1 m/S 700 mmHg 64%
    22:00 +13°C° 0 mm 1 m/S 700 mmHg 68%
    23:00 +14°C° 0 mm 1 m/S 699 mmHg 66%

    15 Dezember, Samstag

    Zeit Temperatur Niederschläge Wind Luftdruck Luftfeuchtigkeit
    00:00 +14°C° 0 mm 1 m/S 699 mmHg 63%
    01:00 +14°C° 0 mm 1 m/S 699 mmHg 60%
    02:00 +14°C° 0.2 mm 1 m/S 699 mmHg 63%
    03:00 +14°C° 0.2 mm 1 m/S 699 mmHg 66%
    04:00 +14°C° 0.2 mm 1 m/S 699 mmHg 69%
    05:00 +14°C° 0.3 mm 1 m/S 699 mmHg 73%
    06:00 +14°C° 0.3 mm 1 m/S 699 mmHg 77%
    07:00 +14°C° 0.3 mm 2 m/S 700 mmHg 80%
    08:00 +15°C° 0.2 mm 2 m/S 700 mmHg 78%
    09:00 +16°C° 0.2 mm 3 m/S 700 mmHg 76%
    10:00 +17°C° 0.2 mm 4 m/S 700 mmHg 74%
    11:00 +17°C° 0.4 mm 4 m/S 700 mmHg 74%
    12:00 +18°C° 0.4 mm 4 m/S 700 mmHg 73%
    13:00 +18°C° 0.4 mm 4 m/S 700 mmHg 73%
    14:00 +19°C° 0.7 mm 4 m/S 700 mmHg 68%
    15:00 +20°C° 0.7 mm 4 m/S 700 mmHg 63%
    16:00 +21°C° 0.7 mm 4 m/S 700 mmHg 58%
    17:00 +20°C° 0.1 mm 3 m/S 700 mmHg 61%
    18:00 +19°C° 0.1 mm 3 m/S 700 mmHg 64%
    19:00 +17°C° 0.1 mm 2 m/S 701 mmHg 68%
    20:00 +16°C° 0 mm 2 m/S 701 mmHg 72%
    21:00 +15°C° 0 mm 1 m/S 701 mmHg 77%
    22:00 +14°C° 0 mm 1 m/S 701 mmHg 82%
    23:00 +13°C° 0 mm 1 m/S 701 mmHg 83%
    Mehr zeigen